{"data":{"norad_id":61727,"intl_designator":"2024-196W","name":"STARLINK-32511","alt_names":[],"object_type":"PAYLOAD","status":"ACTIVE","operator":null,"country":"US","launch_date":"2024-10-30","launch_site_code":"AFETR","launch_vehicle":null,"mission":null,"orbit_class":"UNKNOWN","rcs_meters":null,"size_class":null,"mass_kg":null,"dimensions":null,"purposes":["comms"],"wikipedia_slug":null,"has_3d_model":false,"image_url":null,"decayed_at":null,"tle_current":{"epoch":"2026-05-25T03:40:47.081280Z","epoch_age_seconds":61516,"freshness":"FRESH","line1":"1 61727U 24196W   26145.15332270  .00000313  00000+0  22700-4 0  9997","line2":"2 61727  53.1607 106.1608 0001365  89.6878 270.4279 15.30190094 88863","mean_motion":15.30190094,"eccentricity":0.0001365,"inclination_deg":53.1607,"raan_deg":106.1608,"arg_perigee_deg":89.6878,"mean_anomaly_deg":270.4279,"bstar":2.27e-5,"rev_number":8886,"period_min":94.105954916736,"perigee_km":474.30916051449,"apogee_km":476.18013370415,"semimajor_km":6853.3816471093,"source":"CELESTRAK","updated_at":"2026-05-25T13:38:19.448473Z"}}}